Location: Falniów
(50.3639°N, 19.9642°E)
Time: 19:02:36
(UTC+00:00)

SL-08 R/B - Pass Details

Date: 28 April 2026
Orbit: 667 x 728 km, 98.5° (Epoch: 13 May)

Event Time Altitude Azimuth Distance (km) Brightness Sun altitude
Rises 19:20:59 0° 14° (NNE) 3,164 7.1 -12.3°
Reaches altitude 10° 19:23:17 10° 15° (NNE) 2,237 6.3 -12.6°
Maximum altitude 19:28:13 90° 99° (E) 733 3.4 -13.2°
Drops below altitude 10° 19:33:04 10° 196° (SSW) 2,202 5.6 -13.7°
Sets 19:35:19 0° 197° (SSW) 3,110 6.4 -14.0°
